Wind_Speed
62 65 65 64 58 57 53 46 44 45 39 36 32 33 37 39 37 37 35 32 29 27 27 25 25 24 25 23 21 19 17 15
57 63 61 61 59 58 58 53 49 47 39 38 33 32 36 37 37 37 33 31 29 27 28 27 26 26 26 23 22 20 17 16
49 55 59 64 62 62 61 59 54 46 42 40 35 34 37 39 38 37 33 32 30 28 29 26 26 28 27 25 24 20 18 19
50 52 53 55 56 57 60 58 58 49 44 46 39 34 35 38 35 38 39 35 32 30 34 28 25 28 29 26 27 22 20 20
57 51 54 57 48 53 56 52 49 42 44 46 41 37 36 37 38 40 41 33 30 32 34 29 26 29 30 30 29 24 21 20
61 46 53 55 57 53 51 49 41 37 39 41 42 41 38 35 37 36 38 34 32 33 34 30 26 28 31 32 30 28 24 21
52 55 55 57 60 58 50 48 45 40 39 41 41 41 39 35 36 37 40 39 37 33 32 30 26 28 30 32 31 29 25 26
44 49 50 51 58 57 48 46 39 33 37 35 37 40 40 38 38 41 41 40 35 32 30 30 26 28 31 33 30 28 26 28
40 44 50 48 53 60 37 41 37 36 38 33 36 39 39 36 39 38 39 37 34 32 28 31 26 29 31 32 29 28 27 29
39 42 43 51 55 50 39 37 38 33 30 38 46 46 37 36 38 38 36 35 35 34 33 34 26 31 32 32 31 28 29 30
41 41 44 40 41 41 39 42 39 35 39 44 47 43 39 36 39 37 36 39 41 39 37 34 30 31 32 33 32 29 29 29
39 42 38 40 37 36 42 42 36 42 43 39 34 33 34 40 42 42 42 41 40 37 35 34 33 33 34 34 34 30 28 30
46 34 47 41 44 40 44 43 39 38 39 41 42 39 42 41 42 43 42 43 40 37 35 36 31 31 34 36 34 31 29 28
44 47 49 48 47 48 44 39 39 43 45 43 41 46 48 45 42 41 41 42 42 41 39 36 34 34 37 35 33 31 30 27
51 49 48 47 50 49 41 40 40 42 41 36 37 37 39 42 42 43 41 40 42 42 38 37 37 36 37 36 32 31 31 27
36 34 30 44 44 43 35 38 38 32 28 24 30 33 34 37 38 42 45 42 39 42 39 38 38 36 36 35 34 33 32 30
31 26 24 26 32 34 36 37 37 36 30 23 20 27 34 35 38 38 43 46 42 40 38 38 37 35 36 36 36 33 32 30
20 22 30 29 31 34 35 40 43 41 34 34 26 25 31 37 39 39 42 42 43 37 37 37 39 36 38 38 37 33 32 32
24 25 25 31 36 40 46 47 44 45 39 38 23 25 31 38 41 40 42 39 42 38 38 45 34 37 39 41 39 35 32 32
Wind_Direction
251 248 248 251 253 257 263 260 257 261 265 261 256 255 257 257 251 250 249 256 264 272 279 287 292 279 277 278 279 288 299 289
259 254 247 247 247 249 255 257 255 255 256 256 254 253 250 250 249 247 248 255 263 268 275 278 278 270 271 273 271 280 283 290
259 258 253 246 250 252 251 251 252 250 247 247 245 244 245 245 246 247 250 252 259 264 271 267 269 267 265 270 267 270 274 280
241 249 254 256 249 249 249 248 248 249 246 246 244 237 234 238 245 247 250 245 251 261 268 271 271 261 261 265 265 265 275 275
239 246 245 249 246 250 252 249 246 245 243 246 245 241 234 228 234 241 247 248 251 262 267 269 265 258 258 262 263 262 274 277
244 251 238 247 246 246 252 254 241 238 242 245 246 246 239 231 227 240 247 246 252 259 263 266 268 253 254 260 261 259 262 279
243 245 247 248 251 250 252 253 256 227 238 237 241 243 243 239 232 239 244 245 249 253 257 263 267 250 253 257 258 258 263 269
241 242 242 247 251 249 249 250 243 230 237 238 240 240 241 240 242 245 241 244 247 250 253 259 265 246 253 255 256 258 261 267
240 241 240 243 243 249 251 258 244 236 226 231 239 239 238 239 242 244 240 243 242 246 260 259 259 246 248 253 256 259 263 267
239 240 241 245 246 247 254 261 257 235 241 243 239 235 231 233 239 242 241 243 246 247 258 256 253 243 248 252 256 259 262 268
229 239 240 240 236 247 256 258 255 245 245 242 244 245 228 232 237 239 240 242 246 246 250 248 247 240 246 253 256 260 264 273
218 230 248 244 231 238 250 257 247 248 251 243 234 239 238 233 238 236 240 244 242 243 244 240 244 240 245 252 253 259 262 272
218 200 229 239 232 238 243 241 238 239 251 252 250 242 235 239 239 238 236 240 241 242 239 240 238 235 244 248 248 256 260 271
223 232 215 219 238 236 236 237 240 253 270 266 258 251 248 239 238 240 240 239 242 239 245 238 240 235 242 246 247 255 259 267
216 220 212 215 234 230 229 236 254 269 268 262 257 249 243 238 237 234 232 233 237 237 236 234 239 236 239 243 246 253 256 267
189 205 196 216 224 234 240 247 257 265 260 262 260 250 248 244 239 239 230 232 233 236 230 231 237 241 239 243 244 251 255 261
226 227 235 230 230 238 245 251 255 258 257 240 260 260 258 253 244 239 235 237 236 235 229 229 234 242 239 241 243 248 253 260
228 229 236 238 239 248 260 256 257 254 254 254 255 267 261 253 247 240 238 234 233 231 229 226 226 231 241 240 244 246 251 257
228 232 232 238 244 249 252 251 256 257 256 265 258 269 272 258 251 239 236 232 232 231 225 230 224 232 237 240 242 245 250 256
Height
5725 5724 5726 5728 5731 5734 5735 5738 5743 5744 5750 5754 5755 5756 5758 5758 5760 5763 5763 5765 5764 5765 5766 5766 5764 5763 5762 5762 5763 5763 5761 5760
5711 5712 5712 5711 5718 5724 5728 5731 5732 5733 5741 5743 5746 5747 5748 5750 5752 5754 5756 5758 5757 5758 5759 5758 5759 5757 5757 5756 5758 5759 5757 5756
5697 5696 5698 5701 5707 5712 5717 5718 5721 5724 5728 5731 5734 5738 5739 5741 5744 5746 5748 5750 5750 5750 5752 5753 5753 5752 5752 5752 5752 5753 5753 5752
5678 5682 5686 5690 5692 5695 5700 5703 5707 5711 5715 5717 5723 5727 5731 5733 5737 5738 5738 5740 5742 5743 5744 5745 5746 5745 5745 5746 5746 5747 5748 5748
5661 5675 5676 5678 5680 5683 5687 5690 5695 5700 5703 5705 5709 5715 5720 5724 5726 5727 5728 5732 5735 5736 5737 5738 5738 5738 5738 5739 5740 5741 5741 5741
5655 5664 5667 5668 5670 5672 5677 5681 5685 5689 5691 5693 5696 5702 5709 5714 5717 5719 5719 5723 5726 5728 5729 5730 5730 5730 5731 5733 5733 5734 5735 5735
5647 5652 5655 5660 5661 5664 5669 5672 5674 5677 5681 5684 5688 5692 5698 5704 5707 5709 5711 5713 5717 5720 5721 5722 5721 5723 5725 5726 5726 5727 5727 5728
5634 5640 5645 5648 5650 5655 5657 5661 5663 5665 5670 5674 5678 5682 5686 5691 5695 5699 5701 5704 5708 5710 5711 5713 5713 5715 5717 5718 5719 5719 5720 5721
5624 5628 5633 5637 5639 5644 5645 5649 5654 5656 5657 5663 5669 5672 5676 5679 5683 5687 5691 5693 5697 5699 5702 5705 5705 5705 5710 5711 5712 5712 5713 5713
5614 5617 5621 5626 5632 5635 5637 5639 5643 5648 5652 5655 5657 5660 5664 5670 5673 5677 5681 5684 5687 5689 5693 5696 5696 5698 5701 5702 5703 5704 5704 5705
5607 5610 5614 5620 5624 5628 5630 5632 5635 5637 5641 5644 5646 5649 5654 5660 5664 5668 5670 5674 5677 5680 5684 5686 5687 5690 5692 5694 5695 5696 5696 5697
5592 5600 5605 5610 5614 5619 5622 5624 5625 5627 5628 5632 5636 5640 5645 5650 5654 5656 5660 5664 5666 5670 5674 5676 5678 5681 5683 5685 5687 5688 5688 5689
5587 5586 5595 5603 5607 5611 5613 5614 5615 5616 5619 5623 5627 5629 5634 5638 5642 5645 5649 5653 5656 5660 5663 5666 5669 5672 5675 5677 5678 5679 5680 5681
5581 5583 5583 5592 5597 5600 5603 5607 5610 5609 5611 5613 5614 5616 5621 5625 5629 5633 5637 5642 5645 5649 5652 5656 5660 5663 5666 5669 5669 5670 5671 5672
5570 5573 5578 5582 5587 5590 5595 5598 5600 5602 5603 5604 5605 5606 5609 5613 5616 5620 5626 5630 5634 5638 5642 5646 5650 5653 5656 5659 5660 5661 5662 5663
5558 5567 5563 5572 5577 5581 5588 5591 5593 5594 5596 5597 5597 5598 5600 5602 5605 5608 5613 5619 5623 5628 5631 5635 5640 5643 5647 5649 5650 5651 5653 5655
5552 5555 5560 5564 5568 5573 5578 5581 5584 5588 5589 5589 5591 5591 5592 5593 5595 5598 5602 5606 5612 5618 5622 5625 5631 5635 5637 5638 5640 5642 5645 5646
5548 5550 5555 5559 5562 5564 5569 5573 5576 5578 5581 5581 5582 5584 5584 5583 5585 5588 5591 5595 5601 5607 5613 5616 5616 5620 5627 5628 5631 5634 5636 5638
5548 5549 5551 5553 5557 5559 5561 5564 5566 5569 5572 5573 5574 5575 5576 5575 5574 5577 5580 5583 5589 5595 5602 5602 5577 5609 5615 5619 5621 5625 5627 5629